Погода в Манисалесе

Колумбия     5°04′08″N   75°31′15″W
темп.,
°C
ветер,
м/с
пор.,
м/с
влажн.,
%
обл.,
%
осадки,
мм/ч
давл.,
гПа
погр.,
м
16 мая, вс
вс1601:00+13вюв1198100 6.3 101730
04:00+13в1198100 3.7 101628
07:00+13вюв1197100 10.3 101741
10:00+17зсз218195 0.3 1017686
13:00+17зсз1187100 2.2 1015600
16:00+16зсз0195100 2.4 1013231
19:00+14в1199100 5.7 101766
22:00+13юв1199100 3.8 101964
17 мая, пн
пн1701:00+13юв00100100 8.7 101743
04:00+13св01100100 5.9 101636
07:00+13ссв01100100 12.9 101854
10:00+16сз219384 0.9 1018475
13:00+16сз1290100 2.9 1016434
16:00+14ююв1195100 6.1 1014169
19:00+13вюв2194100 9.4 101726
22:00+13вюв119386 0.2 101913
18 мая, вт
вт1801:00+11вюв119799 0.8 101917
04:00+11вюв119796 0.3 101818
07:00+13св009574 0.4 101954
10:00+16сз218498 0.6 1018632
13:00+15сз119299 3.1 1017380
16:00+13вюв1298100 10.4 1016111
19:00+12вюв1197100 13.1 101817
22:00+12вюв219673 0.1 102020
19 мая, ср
ср1901:00+11вюв2196100 0.3 101923
04:00+11вюв219489 0.4 101826
07:00+13в1183100 0.5 101863
10:00+18зсз3270100 0.1 1017874
13:00+18зсз1181100 2.0 1014685
16:00+15в1191100 5.1 1013131
19:00+13вюв229477 9.6 101634
22:00+12вюв329376 0.2 101839
20 мая, чт
чт2001:00+11вюв229157 0.5 101737
04:00+11вюв218470 0.0 101630
07:00+14в117769 0.1 101767
10:00+19зсз326848 0.3 1016872
13:00+17зсз1185100 4.8 1014533
16:00+15в1297100 13.6 101366
19:00+13вюв229792 14.1 101631
22:00+12вюв229457 0.0 101830